Location: Melita
(38.4566°N, 122.6369°W)
Time: 01:26:00
(UTC+00:00)

NOAA 6 - Pass Details

Date: 24 January 2020
Orbit: 773 x 787 km, 98.7° (Epoch: 28 February)

Event Time Altitude Azimuth Distance (km) Brightness Sun altitude
Rises 13:45:47 0° 14° (NNE) 3,286 7.3 -18.8°
Reaches altitude 10° 13:48:07 10° 15° (NNE) 2,354 6.6 -18.4°
Maximum altitude 13:53:20 81° 104° (ESE) 801 4.1 -17.4°
Drops below altitude 10° 13:58:30 10° 191° (S) 2,337 6.5 -16.4°
Sets 14:00:48 0° 192° (SSW) 3,260 7.3 -16.0°
